[[{"header":{"parameterUnit":"m.s-1","parameterCategory":1,"la1":30.2991,"la2":30.254,"lo1":-89.0895,"lo2":-89.0444,"dy":0.0017,"dx":0.0017,"nx":28,"ny":28,"refTime":"2025-05-24T03:00:00:Z","depth":0,"parameterNumber":2,"parameterNumberName":"U-component_of_WINDS"},"data":[0,0,0,0,0,0,0,0,0,0,0,0,0,0,0,0,0,0,0,0,0,0,0,0,0,0,0,0,0,0,0,0,0,0,0,0,0,0,0,0,0,0,0,0,0,0,0,0,0,0,0,0,0,0,0,0,0,0,-0.4637,-0.4636,0,-0.4521,-0.452,-0.4518,-0.4446,-0.4445,-0.4445,-0.4445,-0.4325,-0.4322,-0.4319,0,0,0,0,0,0,0,0,0,0,0,0,0,-0.4795,-0.4793,-0.4637,-0.4636,-0.4634,-0.4521,-0.452,-0.4518,-0.4446,-0.4445,-0.4445,-0.4444,-0.4325,-0.4322,-0.4319,0,0,0,0,0,0,0,0,0,0,0,0,0,-0.4708,-0.4792,-0.4637,-0.4584,-0.4579,-0.4522,-0.452,-0.4518,-0.4446,-0.4445,-0.4445,-0.4444,-0.4327,-0.4322,-0.4318,-0.4304,0,0,-0.4305,-0.4304,0,0,0,0,0,0,0,0,-0.4713,-0.4702,-0.4594,-0.4588,-0.4581,-0.4497,-0.4531,-0.4446,-0.4446,-0.4496,-0.4444,-0.4444,-0.4382,-0.4374,-0.4353,-0.4299,-0.4294,-0.4305,-0.4302,-0.4301,-0.4299,0,0,0,0,0,0,0,-0.4719,-0.4706,-0.4591,-0.4592,-0.4585,-0.4566,-0.4553,-0.4515,-0.4444,-0.4492,-0.4486,-0.4474,-0.4379,-0.4357,-0.435,-0.4292,-0.4305,-0.4301,-0.4299,-0.4297,-0.422,-0.4221,0,0,0,0,0,0,-0.4733,-0.4712,-0.4595,-0.4588,-0.4647,-0.4564,-0.4549,-0.4525,-0.4444,-0.4431,-0.4474,-0.4471,-0.4365,-0.4355,-0.4345,-0.4324,-0.4301,-0.4297,-0.4294,-0.422,-0.4221,-0.4221,0,0,0,0,0,0,-0.4737,-0.4724,-0.4599,-0.4648,-0.4631,-0.4562,-0.4535,-0.4523,-0.4501,-0.4431,-0.4418,-0.4465,-0.4364,-0.4351,-0.4315,-0.4318,-0.4295,-0.4291,-0.4219,-0.422,-0.4221,-0.4281,0,0,0,0,0,0,-0.4742,-0.4725,-0.4719,-0.4649,-0.4629,-0.4572,-0.4535,-0.4521,-0.4494,-0.4488,-0.4419,-0.4407,-0.4363,-0.4322,-0.4311,-0.4312,-0.4288,-0.4219,-0.422,-0.4221,-0.4278,-0.4283,-0.4288,0,0,0,0,0,-0.4748,-0.4741,-0.472,-0.4706,-0.462,-0.4572,-0.4561,-0.451,-0.4495,-0.4488,-0.4443,-0.4409,-0.432,-0.4319,-0.4306,-0.4306,-0.4218,-0.4219,-0.4221,-0.4276,-0.4282,-0.4288,0,0,0,0,0,0,-0.4813,-0.473,-0.4706,-0.4676,-0.4632,-0.456,-0.455,-0.4518,-0.4477,-0.4473,-0.4412,-0.4397,-0.4367,-0.4333,-0.4333,-0.4288,-0.4265,-0.4264,-0.4312,-0.4317,-0.4322,-0.4331,-0.4284,0,0,0,0,0,-0.4824,-0.4792,-0.4722,-0.4702,-0.4681,-0.462,-0.4597,-0.4562,-0.4513,-0.4494,-0.4446,-0.44,-0.4362,-0.4338,-0.4298,-0.4273,-0.4257,-0.4267,-0.4272,-0.4276,-0.4275,-0.426,-0.4263,-0.4225,-0.4225,-0.4225,0,0,-0.4846,-0.4797,-0.4781,-0.4714,-0.4675,-0.4644,-0.4604,-0.4572,-0.4548,-0.4489,-0.4452,-0.4416,-0.436,-0.433,-0.4314,-0.43,-0.4282,-0.4277,-0.4281,-0.4278,-0.4261,-0.4265,-0.4268,-0.4226,-0.4225,-0.4225,0,0,-0.4871,-0.483,-0.4809,-0.4772,-0.4714,-0.4674,-0.4669,-0.4602,-0.4576,-0.4538,-0.4493,-0.4463,-0.4398,-0.4361,-0.4333,-0.4344,-0.4311,-0.4333,-0.4359,-0.4344,-0.4347,-0.4349,-0.4353,-0.4355,-0.4333,-0.4333,-0.4333,0,-0.4905,-0.4856,-0.4803,-0.4773,-0.4745,-0.4691,-0.4669,-0.4635,-0.4568,-0.455,-0.4536,-0.4453,-0.4412,-0.4372,-0.4375,-0.4355,-0.4347,-0.434,-0.4351,-0.4353,-0.4354,-0.4357,-0.4359,-0.4336,-0.4336,-0.4335,-0.4335,0,-0.4902,-0.4868,-0.4858,-0.4795,-0.4765,-0.474,-0.4683,-0.466,-0.4628,-0.4588,-0.4551,-0.45,-0.4449,-0.4437,-0.4405,-0.4393,-0.4386,-0.4363,-0.4338,-0.4362,-0.4364,-0.4364,-0.434,-0.4339,-0.4338,-0.4338,0,0,-0.4963,-0.4871,-0.4868,-0.4839,-0.4772,-0.4745,-0.4717,-0.4669,-0.465,-0.4605,-0.4581,-0.4528,-0.4505,-0.4474,-0.4437,-0.4425,-0.4437,-0.4402,-0.44,-0.441,-0.442,-0.4439,-0.4441,-0.4415,-0.4415,-0.4415,-0.4425,0,-0.4977,-0.4925,-0.4877,-0.4842,-0.481,-0.4758,-0.4734,-0.4691,-0.4654,-0.4621,-0.458,-0.4543,-0.4517,-0.4498,-0.4483,-0.4439,-0.4438,-0.4437,-0.4391,-0.439,-0.4407,-0.4442,-0.4461,-0.4473,-0.4425,-0.4425,-0.4425,0,-0.4987,-0.4945,-0.4907,-0.4844,-0.4828,-0.4808,-0.4759,-0.4729,-0.4679,-0.4652,-0.4618,-0.458,-0.4548,-0.4528,-0.4483,-0.4484,-0.4463,-0.4438,-0.4437,-0.4431,-0.4409,-0.4436,-0.4475,-0.4477,-0.4426,-0.4426,-0.4426,0,-0.5036,-0.497,-0.4939,-0.4915,-0.484,-0.4827,-0.4795,-0.4744,-0.4718,-0.4675,-0.4658,-0.4612,-0.4588,-0.4553,-0.4504,-0.4493,-0.4465,-0.444,-0.4442,-0.4443,-0.4438,-0.4439,-0.4474,-0.4425,-0.4425,-0.4425,-0.4425,0,-0.5057,-0.5036,-0.496,-0.4941,-0.4916,-0.486,-0.4837,-0.48,-0.4756,-0.4728,-0.4681,-0.4657,-0.4592,-0.456,-0.4521,-0.4491,-0.448,-0.4458,-0.4448,-0.4462,-0.4465,-0.4447,-0.4445,-0.4425,-0.4425,-0.4425,-0.4425,0,-0.5107,-0.5055,-0.5018,-0.495,-0.4932,-0.4917,-0.4859,-0.4838,-0.4799,-0.4765,-0.4754,-0.4692,-0.4652,-0.4599,-0.4543,-0.4516,-0.4491,-0.4475,-0.4508,-0.4502,-0.4507,-0.4507,-0.4532,-0.4532,-0.4483,-0.4484,-0.4484,0,-0.5124,-0.5106,-0.5036,-0.5015,-0.4984,-0.495,-0.4924,-0.4868,-0.4842,-0.4784,-0.4771,-0.4727,-0.4689,-0.4628,-0.4578,-0.4534,-0.4517,-0.4528,-0.451,-0.4525,-0.4517,-0.4519,-0.4517,-0.4533,-0.4534,-0.4534,-0.4535,0,-0.5159,-0.5134,-0.5097,-0.5052,-0.5021,-0.4983,-0.4942,-0.4927,-0.4863,-0.4837,-0.4795,-0.4766,-0.4708,-0.4666,-0.4616,-0.4583,-0.4548,-0.4541,-0.4539,-0.4554,-0.4574,-0.4563,-0.452,-0.4541,-0.454,-0.454,-0.4539,-0.4539,-0.5192,-0.5175,-0.5123,-0.5083,-0.5047,-0.501,-0.4988,-0.4946,-0.491,-0.4859,-0.4829,-0.4789,-0.4739,-0.4668,-0.4637,-0.4605,-0.4591,-0.4589,-0.4588,-0.4588,-0.4593,-0.4579,-0.4595,-0.4595,-0.4595,-0.4595,-0.4595,0,-0.5225,-0.5189,-0.5154,-0.5098,-0.5068,-0.5038,-0.4992,-0.4968,-0.4933,-0.489,-0.4853,-0.4806,-0.4765,-0.4712,-0.4667,-0.4651,-0.4635,-0.4641,-0.4642,-0.4635,-0.4608,-0.4614,-0.4656,-0.4656,-0.4656,-0.4656,-0.4656,-0.4656,-0.5239,-0.5207,-0.5177,-0.5127,-0.5091,-0.5051,-0.5027,-0.4993,-0.4958,-0.4907,-0.4873,-0.4838,-0.4791,-0.4742,-0.4703,-0.4689,-0.4674,-0.4686,-0.4667,-0.4642,-0.4637,-0.4632,-0.4637,-0.4684,-0.4684,-0.4697,-0.4697,-0.4697]},{"header":{"parameterUnit":"m.s-1","parameterCategory":1,"la1":30.2991,"la2":30.254,"lo1":-89.0895,"lo2":-89.0444,"dy":0.0017,"dx":0.0017,"nx":28,"ny":28,"refTime":"2025-05-24T03:00:00:Z","depth":0,"parameterNumber":3,"parameterNumberName":"V-component_of_WINDS"},"data":[0,0,0,0,0,0,0,0,0,0,0,0,0,0,0,0,0,0,0,0,0,0,0,0,0,0,0,0,0,0,0,0,0,0,0,0,0,0,0,0,0,0,0,0,0,0,0,0,0,0,0,0,0,0,0,0,0,0,4.4851,4.485,0,4.4817,4.4817,4.4816,4.4805,4.4805,4.4805,4.4805,4.4765,4.4764,4.4763,0,0,0,0,0,0,0,0,0,0,0,0,0,4.4901,4.49,4.4851,4.485,4.485,4.4817,4.4817,4.4816,4.4805,4.4805,4.4805,4.4805,4.4766,4.4764,4.4763,0,0,0,0,0,0,0,0,0,0,0,0,0,4.4874,4.49,4.4851,4.484,4.4839,4.4817,4.4817,4.4816,4.4805,4.4805,4.4805,4.4805,4.4766,4.4765,4.4763,4.4747,0,0,4.4757,4.4757,0,0,0,0,0,0,0,0,4.4876,4.4872,4.4842,4.4841,4.484,4.4816,4.482,4.4793,4.4805,4.4818,4.4805,4.4805,4.4782,4.4779,4.4772,4.4745,4.4744,4.4757,4.4756,4.4755,4.4755,0,0,0,0,0,0,0,4.4878,4.4874,4.4837,4.4842,4.484,4.4836,4.4832,4.4815,4.4799,4.4816,4.4816,4.4812,4.4781,4.4773,4.4771,4.4743,4.4757,4.4756,4.4754,4.4754,4.4703,4.4703,0,0,0,0,0,0,4.4882,4.4875,4.4838,4.4836,4.4859,4.4835,4.4831,4.4823,4.4799,4.4795,4.4812,4.4812,4.4776,4.4773,4.4769,4.475,4.4755,4.4754,4.4753,4.4704,4.4703,4.4703,0,0,0,0,0,0,4.4883,4.4879,4.484,4.4856,4.485,4.4834,4.4825,4.4822,4.4815,4.4795,4.4792,4.4808,4.4776,4.4772,4.4753,4.4748,4.4753,4.4751,4.4704,4.4704,4.4703,4.4711,0,0,0,0,0,0,4.4884,4.4879,4.4874,4.4856,4.485,4.4826,4.4825,4.4821,4.4812,4.4812,4.479,4.4787,4.4776,4.4756,4.4752,4.4746,4.475,4.4704,4.4704,4.4703,4.4712,4.4711,4.4711,0,0,0,0,0,4.4886,4.4876,4.4874,4.4869,4.4843,4.4826,4.4822,4.4811,4.4812,4.4806,4.4794,4.4788,4.475,4.4754,4.4749,4.4743,4.4705,4.4704,4.4703,4.4712,4.4711,4.4711,0,0,0,0,0,0,4.4892,4.4874,4.4871,4.4855,4.4842,4.4824,4.4816,4.4811,4.4797,4.4797,4.4782,4.4777,4.476,4.475,4.4755,4.4727,4.4727,4.4725,4.4735,4.4734,4.4734,4.4737,4.4748,0,0,0,0,0,4.4892,4.4881,4.4865,4.4852,4.4846,4.4833,4.4824,4.4818,4.4803,4.4797,4.4783,4.4768,4.4753,4.4743,4.4728,4.471,4.4705,4.4703,4.4703,4.4703,4.4702,4.4692,4.4691,4.4701,4.4701,4.4701,0,0,4.4891,4.4879,4.4873,4.4853,4.4843,4.483,4.4828,4.4815,4.4805,4.4794,4.4777,4.4767,4.4749,4.4731,4.4722,4.4722,4.4698,4.4702,4.4703,4.4701,4.4691,4.469,4.4689,4.4701,4.4701,4.4701,0,0,4.4883,4.4873,4.4862,4.4852,4.4837,4.4828,4.4825,4.4808,4.4801,4.4784,4.4776,4.4764,4.4738,4.4726,4.4716,4.4705,4.4699,4.4701,4.47,4.469,4.4689,4.4689,4.4685,4.4683,4.4699,4.4699,4.4699,0,4.4883,4.4865,4.4856,4.4844,4.4836,4.4828,4.4816,4.4806,4.4786,4.478,4.478,4.4748,4.4735,4.4715,4.4713,4.4705,4.4701,4.4703,4.4691,4.469,4.4689,4.4685,4.4683,4.47,4.47,4.47,4.47,0,4.4866,4.4854,4.4847,4.483,4.4821,4.4809,4.4797,4.4788,4.4783,4.4773,4.4756,4.4741,4.4723,4.4718,4.4711,4.4696,4.4697,4.4694,4.4693,4.4688,4.4684,4.4683,4.47,4.47,4.47,4.47,0,0,4.4859,4.484,4.4837,4.483,4.4813,4.4803,4.479,4.4775,4.4768,4.4754,4.4743,4.4722,4.472,4.4709,4.4701,4.4693,4.4686,4.4691,4.4691,4.4691,4.4669,4.4671,4.467,4.4682,4.4682,4.4681,4.4671,0,4.4849,4.4828,4.4821,4.4803,4.4792,4.4785,4.4774,4.4762,4.4753,4.4742,4.4731,4.4717,4.4715,4.4709,4.47,4.4688,4.4681,4.4689,4.467,4.467,4.4675,4.4668,4.4669,4.466,4.4669,4.4669,4.4668,0,4.4834,4.4823,4.4805,4.4791,4.4786,4.4776,4.4762,4.4751,4.4737,4.4732,4.4721,4.4714,4.4699,4.47,4.468,4.4686,4.4677,4.4671,4.467,4.4667,4.4669,4.4665,4.4657,4.4655,4.4666,4.4666,4.4666,0,4.4831,4.4811,4.4798,4.4792,4.4775,4.4769,4.4761,4.4748,4.474,4.4727,4.4721,4.4706,4.4697,4.4685,4.4674,4.4675,4.4655,4.4654,4.4649,4.4649,4.4644,4.4644,4.4635,4.4639,4.4639,4.4639,4.4639,0,4.482,4.4809,4.4797,4.4789,4.4777,4.4768,4.4755,4.4747,4.4735,4.4725,4.4717,4.4707,4.4693,4.4681,4.4671,4.4656,4.4652,4.4647,4.4644,4.4647,4.4648,4.4641,4.4641,4.4639,4.4639,4.4639,4.4639,0,4.4815,4.4806,4.4792,4.4778,4.4774,4.4765,4.4753,4.4744,4.4736,4.4723,4.4719,4.4705,4.4691,4.4679,4.4659,4.4652,4.4637,4.4634,4.4642,4.4641,4.4636,4.4636,4.4621,4.4618,4.4625,4.4625,4.4625,0,4.4808,4.48,4.4786,4.4779,4.4773,4.4761,4.4754,4.4744,4.4736,4.4721,4.4714,4.4699,4.4687,4.4664,4.4651,4.4636,4.4633,4.4628,4.463,4.4634,4.4632,4.4633,4.4632,4.4628,4.4628,4.4628,4.4628,0,4.4797,4.4794,4.4784,4.4772,4.4764,4.4754,4.4743,4.4738,4.4726,4.4717,4.4704,4.4694,4.4676,4.4661,4.4645,4.4635,4.4629,4.4628,4.4626,4.4628,4.4634,4.4631,4.4642,4.4628,4.4628,4.4628,4.4628,4.4628,4.4791,4.4784,4.4773,4.4762,4.4754,4.4745,4.4737,4.4728,4.4717,4.4703,4.4697,4.4683,4.467,4.4648,4.4639,4.4627,4.4626,4.4623,4.4622,4.4621,4.4622,4.4636,4.4624,4.4624,4.4624,4.4624,4.4624,0,4.478,4.4773,4.4764,4.4751,4.4742,4.4739,4.4728,4.4721,4.4709,4.4698,4.4687,4.4671,4.4657,4.4644,4.463,4.4623,4.462,4.4619,4.4619,4.4617,4.4623,4.4627,4.4622,4.4622,4.4622,4.4622,4.4622,4.4622,4.4773,4.4761,4.4757,4.4741,4.4734,4.4722,4.4715,4.4707,4.4698,4.4682,4.4671,4.4664,4.4652,4.4636,4.4623,4.462,4.4614,4.4615,4.461,4.4616,4.4617,4.4617,4.462,4.4614,4.4614,4.4605,4.4605,4.4605]}]]